Hourly Weather Ruda-Krakovets'ka

Today, 22 April, Thursday

Time Temperature Precipitation Wind Pressure Humidity
00:00 +7°C° 0 mm 3 mps 740 mmHg 89%
01:00 +7°C° 0 mm 3 mps 740 mmHg 89%
02:00 +7°C° 0 mm 3 mps 740 mmHg 89%
03:00 +5°C° 0 mm 3 mps 740 mmHg 90%
04:00 +5°C° 0 mm 3 mps 740 mmHg 91%
05:00 +5°C° 0 mm 3 mps 740 mmHg 92%
06:00 +6°C° 0 mm 4 mps 740 mmHg 89%
07:00 +7°C° 0 mm 4 mps 740 mmHg 86%
08:00 +9°C° 0 mm 5 mps 741 mmHg 82%
09:00 +9°C° 0.6 mm 5 mps 741 mmHg 82%
10:00 +9°C° 0.6 mm 5 mps 741 mmHg 81%
11:00 +10°C° 0.6 mm 6 mps 741 mmHg 80%
12:00 +10°C° 0.8 mm 6 mps 741 mmHg 80%
13:00 +9°C° 0.8 mm 6 mps 741 mmHg 79%
14:00 +9°C° 0.8 mm 7 mps 741 mmHg 79%
15:00 +8°C° 1.4 mm 6 mps 741 mmHg 81%
16:00 +6°C° 1.4 mm 4 mps 742 mmHg 83%
17:00 +5°C° 1.4 mm 3 mps 742 mmHg 86%
18:00 +5°C° 0.1 mm 3 mps 743 mmHg 86%
19:00 +4°C° 0.1 mm 3 mps 743 mmHg 86%
20:00 +5°C° 0.1 mm 2 mps 743 mmHg 86%
21:00 +4°C° 0 mm 2 mps 743 mmHg 85%
22:00 +4°C° 0 mm 2 mps 743 mmHg 85%
23:00 +3°C° 0 mm 2 mps 743 mmHg 84%

Tomorrow, 23 April, Friday

Time Temperature Precipitation Wind Pressure Humidity
00:00 +3°C° 0 mm 2 mps 744 mmHg 85%
01:00 +2°C° 0 mm 2 mps 744 mmHg 85%
02:00 +2°C° 0 mm 2 mps 744 mmHg 85%
03:00 +1°C° 0 mm 2 mps 744 mmHg 87%
04:00 +1°C° 0 mm 2 mps 744 mmHg 88%
05:00 +1°C° 0 mm 2 mps 744 mmHg 90%
06:00 +1°C° 0 mm 3 mps 745 mmHg 86%
07:00 +1°C° 0 mm 4 mps 745 mmHg 82%
08:00 +3°C° 0 mm 4 mps 745 mmHg 78%
09:00 +3°C° 0.2 mm 5 mps 745 mmHg 70%
10:00 +6°C° 0.2 mm 5 mps 745 mmHg 63%
11:00 +7°C° 0.2 mm 6 mps 745 mmHg 55%
12:00 +7°C° 0 mm 6 mps 745 mmHg 51%
13:00 +8°C° 0 mm 6 mps 745 mmHg 47%
14:00 +8°C° 0 mm 6 mps 745 mmHg 42%
15:00 +8°C° 0.1 mm 6 mps 745 mmHg 49%
16:00 +7°C° 0.1 mm 6 mps 745 mmHg 56%
17:00 +7°C° 0.1 mm 6 mps 745 mmHg 62%
18:00 +5°C° 0.2 mm 5 mps 745 mmHg 68%
19:00 +4°C° 0.2 mm 4 mps 745 mmHg 73%
20:00 +3°C° 0.2 mm 3 mps 746 mmHg 79%
21:00 +1°C° 0 mm 4 mps 746 mmHg 81%
22:00 +1°C° 0 mm 4 mps 746 mmHg 83%
23:00 0°C° 0 mm 5 mps 746 mmHg 85%

Day after tomorrow, 24 April, Saturday

Time Temperature Precipitation Wind Pressure Humidity
00:00 0°C° 0.1 mm 5 mps 746 mmHg 87%
01:00 0°C° 0.1 mm 4 mps 746 mmHg 89%
02:00 0°C° 0.1 mm 4 mps 746 mmHg 91%
03:00 -1°C° 0.1 mm 4 mps 747 mmHg 92%
04:00 -1°C° 0.1 mm 4 mps 747 mmHg 93%
05:00 0°C° 0.1 mm 3 mps 747 mmHg 93%
06:00 +1°C° 0 mm 3 mps 747 mmHg 87%
07:00 +1°C° 0 mm 4 mps 748 mmHg 81%
08:00 +3°C° 0 mm 4 mps 748 mmHg 74%
09:00 +4°C° 0 mm 4 mps 748 mmHg 64%
10:00 +5°C° 0 mm 4 mps 748 mmHg 53%
11:00 +7°C° 0 mm 5 mps 748 mmHg 42%
12:00 +7°C° 0 mm 5 mps 747 mmHg 41%
13:00 +8°C° 0 mm 5 mps 747 mmHg 39%
14:00 +9°C° 0 mm 5 mps 747 mmHg 38%
15:00 +9°C° 0 mm 5 mps 746 mmHg 40%
16:00 +8°C° 0 mm 5 mps 746 mmHg 42%
17:00 +8°C° 0 mm 4 mps 746 mmHg 45%
18:00 +8°C° 0 mm 3 mps 746 mmHg 51%
19:00 +7°C° 0 mm 2 mps 746 mmHg 57%
20:00 +5°C° 0 mm 2 mps 746 mmHg 63%
21:00 +5°C° 0 mm 2 mps 746 mmHg 67%
22:00 +5°C° 0 mm 2 mps 746 mmHg 70%
23:00 +5°C° 0 mm 2 mps 746 mmHg 74%

25 April, Sunday

Time Temperature Precipitation Wind Pressure Humidity
00:00 +5°C° 0.1 mm 2 mps 745 mmHg 79%
01:00 +5°C° 0.1 mm 2 mps 745 mmHg 83%
02:00 +4°C° 0.1 mm 2 mps 745 mmHg 87%
03:00 +3°C° 0 mm 3 mps 745 mmHg 90%
04:00 +2°C° 0 mm 3 mps 745 mmHg 92%
05:00 +2°C° 0 mm 3 mps 745 mmHg 95%
06:00 +2°C° 0 mm 3 mps 745 mmHg 91%
07:00 +2°C° 0 mm 3 mps 745 mmHg 87%
08:00 +3°C° 0 mm 3 mps 745 mmHg 84%
09:00 +3°C° 0.2 mm 3 mps 745 mmHg 83%
10:00 +4°C° 0.2 mm 2 mps 746 mmHg 83%
11:00 +4°C° 0.2 mm 2 mps 746 mmHg 82%
12:00 +4°C° 0.2 mm 3 mps 746 mmHg 75%
13:00 +5°C° 0.2 mm 3 mps 745 mmHg 68%
14:00 +6°C° 0.2 mm 4 mps 745 mmHg 60%
15:00 +6°C° 0.2 mm 4 mps 745 mmHg 60%
16:00 +6°C° 0.2 mm 5 mps 745 mmHg 59%
17:00 +6°C° 0.2 mm 5 mps 745 mmHg 59%
18:00 +5°C° 0.1 mm 4 mps 745 mmHg 64%
19:00 +3°C° 0.1 mm 3 mps 745 mmHg 69%
20:00 +3°C° 0.1 mm 2 mps 745 mmHg 74%
21:00 +2°C° 0 mm 2 mps 745 mmHg 76%
22:00 +2°C° 0 mm 2 mps 745 mmHg 77%
23:00 0°C° 0 mm 3 mps 745 mmHg 79%

26 April, Monday

Time Temperature Precipitation Wind Pressure Humidity
00:00 0°C° 0 mm 3 mps 745 mmHg 80%
01:00 -1°C° 0 mm 3 mps 745 mmHg 80%
02:00 -1°C° 0 mm 3 mps 745 mmHg 81%
03:00 -1°C° 0 mm 3 mps 745 mmHg 82%
04:00 -2°C° 0 mm 3 mps 745 mmHg 82%
05:00 -2°C° 0 mm 3 mps 745 mmHg 83%
06:00 0°C° 0 mm 3 mps 745 mmHg 75%
07:00 +1°C° 0 mm 3 mps 745 mmHg 68%
08:00 +3°C° 0 mm 3 mps 745 mmHg 60%
09:00 +4°C° 0 mm 4 mps 745 mmHg 55%
10:00 +5°C° 0 mm 4 mps 745 mmHg 49%
11:00 +6°C° 0 mm 4 mps 745 mmHg 43%
12:00 +7°C° 0 mm 5 mps 744 mmHg 43%
13:00 +8°C° 0 mm 5 mps 744 mmHg 43%
14:00 +8°C° 0 mm 5 mps 743 mmHg 42%
15:00 +8°C° 0 mm 5 mps 743 mmHg 45%
16:00 +8°C° 0 mm 4 mps 743 mmHg 48%
17:00 +8°C° 0 mm 4 mps 742 mmHg 50%
18:00 +7°C° 0 mm 3 mps 742 mmHg 57%
19:00 +6°C° 0 mm 2 mps 742 mmHg 64%
20:00 +4°C° 0 mm 0 mps 742 mmHg 71%
21:00 +5°C° 0 mm 1 mps 742 mmHg 73%
22:00 +4°C° 0 mm 1 mps 742 mmHg 74%
23:00 +4°C° 0 mm 1 mps 742 mmHg 76%

27 April, Tuesday

Time Temperature Precipitation Wind Pressure Humidity
00:00 +4°C° 0 mm 1 mps 742 mmHg 77%
01:00 +3°C° 0 mm 1 mps 742 mmHg 77%
02:00 +2°C° 0 mm 2 mps 742 mmHg 78%
03:00 +2°C° 0 mm 2 mps 742 mmHg 80%
04:00 +1°C° 0 mm 2 mps 741 mmHg 81%
05:00 +1°C° 0 mm 2 mps 741 mmHg 83%
06:00 +3°C° 0 mm 2 mps 741 mmHg 77%
07:00 +4°C° 0 mm 2 mps 741 mmHg 71%
08:00 +6°C° 0 mm 2 mps 741 mmHg 66%
09:00 +8°C° 0 mm 2 mps 741 mmHg 61%
10:00 +10°C° 0 mm 3 mps 740 mmHg 56%
11:00 +11°C° 0 mm 3 mps 740 mmHg 51%
12:00 +12°C° 0 mm 3 mps 740 mmHg 49%
13:00 +13°C° 0 mm 3 mps 739 mmHg 46%
14:00 +13°C° 0 mm 3 mps 739 mmHg 44%
15:00 +13°C° 0 mm 3 mps 738 mmHg 46%
16:00 +13°C° 0 mm 3 mps 738 mmHg 49%
17:00 +13°C° 0 mm 4 mps 737 mmHg 51%
18:00 +12°C° 0 mm 4 mps 737 mmHg 57%
19:00 +10°C° 0 mm 4 mps 737 mmHg 64%
20:00 +7°C° 0 mm 4 mps 737 mmHg 70%
21:00 +7°C° 0 mm 4 mps 736 mmHg 75%
22:00 +7°C° 0 mm 4 mps 736 mmHg 79%
23:00 +6°C° 0 mm 4 mps 736 mmHg 84%
Show more